PIA308 OPKC-OPIS

Flight info

Callsign PIA308
Flight time 1h 32m
Altitude 37000
Route BADUL B466 NH Z301 BELKO
Aircraft B772/H-SDE2E3FGHIJ5LORVWXY/LB1D1

Departure

Time 2026-05-08 16:30
Airport Jinnah International Airport (OPKC)

Arrival

Time 2026-05-08 18:03
Airport Islamabad International Airport (OPIS)
Time Latitude Longitude Altitude Speed Heading
2026-05-08 15:48 24.90324 67.16903 105 ft 0 kts 164°
2026-05-08 16:19 24.90330 67.16901 107 ft 4 kts 164°
2026-05-08 16:20 24.90356 67.16893 104 ft 4 kts 164°
2026-05-08 16:20 24.90379 67.16886 106 ft 4 kts 156°
2026-05-08 16:20 24.90396 67.16873 104 ft 4 kts 115°
2026-05-08 16:20 24.90400 67.16850 106 ft 4 kts 78°
2026-05-08 16:21 24.90394 67.16824 104 ft 1 kts 75°
2026-05-08 16:21 24.90393 67.16819 104 ft 0 kts 75°
2026-05-08 16:25 24.90397 67.16835 108 ft 6 kts 75°
2026-05-08 16:25 24.90407 67.16878 106 ft 10 kts 75°
2026-05-08 16:25 24.90426 67.16955 113 ft 11 kts 75°
2026-05-08 16:26 24.90454 67.17028 109 ft 11 kts 44°
2026-05-08 16:26 24.90524 67.17032 107 ft 11 kts 345°
2026-05-08 16:26 24.90566 67.17042 108 ft 5 kts 49°
2026-05-08 16:26 24.90576 67.17081 107 ft 5 kts 76°
2026-05-08 16:27 24.90588 67.17136 108 ft 12 kts 75°
2026-05-08 16:27 24.90618 67.17252 107 ft 17 kts 74°
2026-05-08 16:27 24.90649 67.17368 108 ft 15 kts 68°
2026-05-08 16:27 24.90722 67.17447 107 ft 14 kts 30°
2026-05-08 16:28 24.90751 67.17466 108 ft 0 kts 30°
2026-05-08 16:28 24.90760 67.17471 108 ft 6 kts 30°
2026-05-08 16:28 24.90833 67.17486 108 ft 14 kts 340°
2026-05-08 16:29 24.90857 67.17404 108 ft 12 kts 252°
2026-05-08 16:29 24.90855 67.17398 109 ft 0 kts 252°
2026-05-08 16:29 24.90851 67.17384 109 ft 14 kts 252°
2026-05-08 16:29 24.90726 67.16898 111 ft 118 kts 253°
2026-05-08 16:30 24.90441 67.15786 509 ft 169 kts 251°
2026-05-08 16:30 24.90131 67.14550 1740 ft 168 kts 252°
2026-05-08 16:30 24.89841 67.13234 2767 ft 177 kts 263°
2026-05-08 16:30 24.90113 67.11827 3297 ft 209 kts 300°
2026-05-08 16:31 24.91347 67.10789 3541 ft 246 kts 343°
2026-05-08 16:31 24.93075 67.10875 4232 ft 256 kts 22°
2026-05-08 16:31 24.94435 67.12089 5106 ft 252 kts 55°
2026-05-08 16:31 24.95421 67.13707 5804 ft 257 kts 57°
2026-05-08 16:32 24.96415 67.15347 6506 ft 259 kts 57°
2026-05-08 16:32 24.97470 67.17027 6881 ft 275 kts 55°
2026-05-08 16:32 24.98592 67.18751 7610 ft 278 kts 54°
2026-05-08 16:32 24.99739 67.20469 8466 ft 278 kts 53°
2026-05-08 16:33 25.00895 67.22168 9340 ft 276 kts 52°
2026-05-08 16:33 25.02054 67.23851 10125 ft 278 kts 52°
2026-05-08 16:33 25.03265 67.25596 10464 ft 298 kts 51°
2026-05-08 16:33 25.04580 67.27480 10666 ft 322 kts 51°
2026-05-08 16:34 25.05998 67.29510 10850 ft 347 kts 51°
2026-05-08 16:34 25.07499 67.31655 11409 ft 359 kts 51°
2026-05-08 16:34 25.09035 67.33851 12275 ft 363 kts 50°
2026-05-08 16:34 25.10602 67.36040 13277 ft 363 kts 46°
2026-05-08 16:35 25.12423 67.37971 14118 ft 365 kts 38°
2026-05-08 16:35 25.14396 67.39726 14880 ft 370 kts 36°
2026-05-08 16:35 25.16451 67.41506 15606 ft 376 kts 37°
2026-05-08 16:35 25.18505 67.43334 16341 ft 381 kts 38°
2026-05-08 16:36 25.20553 67.45211 17054 ft 386 kts 38°
2026-05-08 16:36 25.22625 67.47132 17803 ft 391 kts 39°
2026-05-08 16:36 25.24725 67.49073 18438 ft 396 kts 38°
2026-05-08 16:36 25.26860 67.51024 19042 ft 400 kts 38°
2026-05-08 16:37 25.29008 67.52981 19664 ft 403 kts 38°
2026-05-08 16:37 25.31176 67.54955 20255 ft 406 kts 37°
2026-05-08 16:37 25.33371 67.56957 20829 ft 410 kts 37°
2026-05-08 16:37 25.35579 67.58971 21376 ft 414 kts 37°
2026-05-08 16:38 25.37804 67.61004 21942 ft 417 kts 37°
2026-05-08 16:38 25.40055 67.63063 22477 ft 421 kts 37°
2026-05-08 16:38 25.42321 67.65137 22994 ft 424 kts 37°
2026-05-08 16:38 25.44591 67.67216 23491 ft 427 kts 37°
2026-05-08 16:39 25.46889 67.69322 23908 ft 430 kts 37°
2026-05-08 16:39 25.49212 67.71453 24314 ft 434 kts 36°
2026-05-08 16:39 25.51546 67.73594 24705 ft 437 kts 36°
2026-05-08 16:39 25.53891 67.75747 25110 ft 440 kts 36°
2026-05-08 16:40 25.56260 67.77921 25515 ft 444 kts 36°
2026-05-08 16:40 25.58645 67.80113 25908 ft 447 kts 36°
2026-05-08 16:40 25.61048 67.82323 26299 ft 451 kts 36°
2026-05-08 16:40 25.63468 67.84549 26683 ft 454 kts 35°
2026-05-08 16:41 25.65907 67.86793 27064 ft 457 kts 35°
2026-05-08 16:41 25.68363 67.89054 27450 ft 461 kts 35°
2026-05-08 16:41 25.70841 67.91337 27843 ft 463 kts 35°
2026-05-08 16:42 25.75820 67.95930 28576 ft 470 kts 34°
2026-05-08 16:42 25.78387 67.98299 28940 ft 473 kts 34°
2026-05-08 16:42 25.80889 68.00610 29297 ft 476 kts 34°
2026-05-08 16:42 25.83440 68.02968 29655 ft 478 kts 34°
2026-05-08 16:43 25.86005 68.05340 29955 ft 481 kts 34°
2026-05-08 16:43 25.88619 68.07758 30242 ft 484 kts 34°
2026-05-08 16:43 25.91169 68.10119 30500 ft 487 kts 34°
2026-05-08 16:43 25.93783 68.12540 30752 ft 489 kts 34°
2026-05-08 16:44 25.96392 68.14959 30999 ft 491 kts 34°
2026-05-08 16:44 25.99060 68.17434 31232 ft 493 kts 34°
2026-05-08 16:44 26.01694 68.19879 31463 ft 495 kts 34°
2026-05-08 16:44 26.04348 68.22344 31675 ft 497 kts 34°
2026-05-08 16:45 26.06967 68.24777 31894 ft 499 kts 34°
2026-05-08 16:45 26.09662 68.27284 32205 ft 499 kts 33°
2026-05-08 16:45 26.12324 68.29763 32515 ft 498 kts 33°
2026-05-08 16:45 26.14985 68.32241 32845 ft 497 kts 33°
2026-05-08 16:46 26.17637 68.34711 33148 ft 497 kts 33°
2026-05-08 16:46 26.20304 68.37150 33476 ft 494 kts 31°
2026-05-08 16:46 26.23026 68.39302 33778 ft 489 kts 26°
2026-05-08 16:46 26.26027 68.41212 34047 ft 485 kts 21°
2026-05-08 16:47 26.29015 68.42964 34285 ft 485 kts 21°
2026-05-08 16:47 26.32002 68.44696 34540 ft 485 kts 21°
2026-05-08 16:47 26.34979 68.46432 34804 ft 485 kts 21°
2026-05-08 16:47 26.37984 68.48200 35089 ft 486 kts 21°
2026-05-08 16:48 26.40965 68.49969 35344 ft 486 kts 21°
2026-05-08 16:48 26.43951 68.51751 35599 ft 486 kts 21°
2026-05-08 16:48 26.46935 68.53536 35857 ft 487 kts 21°
2026-05-08 16:48 26.49907 68.55316 36119 ft 487 kts 21°
2026-05-08 16:49 26.52905 68.57111 36368 ft 487 kts 21°
2026-05-08 16:49 26.55898 68.58903 36616 ft 488 kts 21°
2026-05-08 16:49 26.58893 68.60696 36689 ft 492 kts 21°
2026-05-08 16:50 26.63922 68.63709 36751 ft 495 kts 21°
2026-05-08 16:50 26.71038 68.67954 36756 ft 496 kts 21°
2026-05-08 16:51 26.77116 68.71578 36752 ft 496 kts 21°
2026-05-08 16:51 26.83207 68.75215 36752 ft 495 kts 21°
2026-05-08 16:52 26.89275 68.78846 36747 ft 495 kts 21°
2026-05-08 16:52 26.95348 68.82486 36746 ft 494 kts 21°
2026-05-08 16:53 27.04420 68.87930 36739 ft 493 kts 21°
2026-05-08 16:53 27.10468 68.91564 36747 ft 492 kts 21°
2026-05-08 16:54 27.16498 68.95192 36746 ft 492 kts 21°
2026-05-08 16:54 27.22532 68.98827 36744 ft 492 kts 21°
2026-05-08 16:55 27.28559 69.02462 36738 ft 492 kts 21°
2026-05-08 16:55 27.34597 69.06111 36741 ft 493 kts 21°
2026-05-08 16:56 27.40631 69.09758 36737 ft 493 kts 21°
2026-05-08 16:56 27.46689 69.13419 36740 ft 494 kts 21°
2026-05-08 16:57 27.52482 69.16922 36741 ft 494 kts 20°
2026-05-08 16:57 27.58710 69.20696 36743 ft 495 kts 20°
2026-05-08 16:58 27.64794 69.24387 36736 ft 494 kts 20°
2026-05-08 16:58 27.70841 69.28061 36744 ft 493 kts 20°
2026-05-08 16:59 27.76760 69.31662 36746 ft 492 kts 20°
2026-05-08 16:59 27.82896 69.35399 36740 ft 491 kts 20°
2026-05-08 17:00 27.88909 69.39065 36737 ft 490 kts 20°
2026-05-08 17:00 27.93886 69.42103 36739 ft 490 kts 20°
2026-05-08 17:01 27.99879 69.45766 36740 ft 489 kts 20°
2026-05-08 17:01 28.05908 69.49455 36734 ft 489 kts 20°
2026-05-08 17:02 28.11851 69.53096 36739 ft 489 kts 20°
2026-05-08 17:02 28.17866 69.56787 36748 ft 489 kts 20°
2026-05-08 17:03 28.23819 69.60444 36747 ft 490 kts 20°
2026-05-08 17:03 28.29843 69.64149 36744 ft 490 kts 20°
2026-05-08 17:04 28.35848 69.67847 36746 ft 491 kts 20°
2026-05-08 17:04 28.41816 69.71529 36753 ft 491 kts 20°
2026-05-08 17:05 28.47866 69.75266 36754 ft 492 kts 20°
2026-05-08 17:05 28.53893 69.78993 36760 ft 494 kts 20°
2026-05-08 17:06 28.59911 69.82646 36762 ft 493 kts 20°
2026-05-08 17:06 28.66024 69.86304 36759 ft 493 kts 20°
2026-05-08 17:07 28.72103 69.89951 36766 ft 493 kts 20°
2026-05-08 17:07 28.78159 69.93603 36761 ft 492 kts 20°
2026-05-08 17:08 28.84189 69.97247 36763 ft 491 kts 20°
2026-05-08 17:08 28.90245 70.00912 36773 ft 490 kts 20°
2026-05-08 17:09 28.96258 70.04556 36779 ft 489 kts 20°
2026-05-08 17:09 29.02272 70.08204 36774 ft 488 kts 20°
2026-05-08 17:10 29.08259 70.11840 36775 ft 487 kts 20°
2026-05-08 17:10 29.14244 70.15481 36776 ft 486 kts 20°
2026-05-08 17:11 29.20158 70.19082 36782 ft 486 kts 20°
2026-05-08 17:11 29.26174 70.22751 36779 ft 485 kts 20°
2026-05-08 17:12 29.32122 70.26383 36778 ft 485 kts 20°
2026-05-08 17:12 29.38059 70.30013 36791 ft 484 kts 20°
2026-05-08 17:13 29.44015 70.33660 36780 ft 484 kts 20°
2026-05-08 17:13 29.49910 70.37283 36729 ft 465 kts 19°
2026-05-08 17:14 29.52714 70.39020 36758 ft 454 kts 19°
2026-05-08 17:14 29.55484 70.40721 36783 ft 456 kts 19°
2026-05-08 17:14 29.61168 70.44196 36792 ft 461 kts 19°
2026-05-08 17:15 29.66855 70.47685 36791 ft 465 kts 19°
2026-05-08 17:15 29.72576 70.51211 36788 ft 467 kts 19°
2026-05-08 17:16 29.78310 70.54752 36789 ft 468 kts 19°
2026-05-08 17:16 29.84043 70.58298 36790 ft 467 kts 19°
2026-05-08 17:17 29.89755 70.61834 36788 ft 466 kts 19°
2026-05-08 17:17 29.95452 70.65364 36789 ft 465 kts 19°
2026-05-08 17:18 30.01140 70.68892 36790 ft 464 kts 19°
2026-05-08 17:18 30.06863 70.72447 36791 ft 463 kts 19°
2026-05-08 17:19 30.12528 70.75971 36797 ft 463 kts 19°
2026-05-08 17:19 30.18175 70.79488 36791 ft 463 kts 19°
2026-05-08 17:20 30.23864 70.83013 36794 ft 461 kts 18°
2026-05-08 17:20 30.29603 70.86265 36792 ft 459 kts 16°
2026-05-08 17:21 30.35382 70.89452 36795 ft 460 kts 16°
2026-05-08 17:21 30.41150 70.92672 36792 ft 460 kts 17°
2026-05-08 17:22 30.46915 70.95924 36793 ft 461 kts 17°
2026-05-08 17:22 30.52573 70.99128 36795 ft 461 kts 17°
2026-05-08 17:23 30.58329 71.02391 36797 ft 461 kts 17°
2026-05-08 17:23 30.64023 71.05622 36804 ft 461 kts 17°
2026-05-08 17:24 30.69833 71.08923 36798 ft 460 kts 17°
2026-05-08 17:24 30.75535 71.12166 36807 ft 459 kts 17°
2026-05-08 17:25 30.81269 71.15433 36814 ft 458 kts 17°
2026-05-08 17:25 30.86982 71.18691 36802 ft 457 kts 17°
2026-05-08 17:26 30.92717 71.21966 36806 ft 456 kts 17°
2026-05-08 17:26 30.98408 71.25222 36807 ft 455 kts 17°
2026-05-08 17:27 31.04081 71.28470 36810 ft 454 kts 17°
2026-05-08 17:27 31.09754 71.31722 36813 ft 454 kts 17°
2026-05-08 17:28 31.15368 71.34945 36814 ft 453 kts 17°
2026-05-08 17:28 31.21061 71.38219 36812 ft 453 kts 17°
2026-05-08 17:29 31.26720 71.41478 36819 ft 453 kts 17°
2026-05-08 17:29 31.32369 71.44736 36822 ft 453 kts 17°
2026-05-08 17:30 31.38030 71.48005 36822 ft 453 kts 17°
2026-05-08 17:30 31.43683 71.51274 36820 ft 453 kts 17°
2026-05-08 17:31 31.49345 71.54553 36828 ft 453 kts 18°
2026-05-08 17:31 31.55003 71.57833 36876 ft 459 kts 18°
2026-05-08 17:32 31.60776 71.61181 36843 ft 469 kts 19°
2026-05-08 17:32 31.66675 71.64612 36841 ft 474 kts 19°
2026-05-08 17:33 31.72584 71.68059 36842 ft 475 kts 19°
2026-05-08 17:33 31.78520 71.71527 36836 ft 474 kts 19°
2026-05-08 17:34 31.83452 71.74413 36837 ft 472 kts 19°
2026-05-08 17:34 31.89308 71.77842 36845 ft 469 kts 19°
2026-05-08 17:35 31.95148 71.81265 36840 ft 467 kts 19°
2026-05-08 17:35 32.00949 71.84670 36849 ft 466 kts 19°
2026-05-08 17:36 32.06748 71.88078 36842 ft 465 kts 19°
2026-05-08 17:36 32.12520 71.91474 36864 ft 464 kts 19°
2026-05-08 17:37 32.18309 71.94887 36866 ft 464 kts 19°
2026-05-08 17:37 32.24081 71.98294 36859 ft 465 kts 19°
2026-05-08 17:38 32.29851 72.01709 36694 ft 458 kts 19°
2026-05-08 17:38 32.32731 72.03416 36373 ft 456 kts 19°
2026-05-08 17:38 32.35535 72.05075 35924 ft 457 kts 20°
2026-05-08 17:39 32.38381 72.06759 35426 ft 458 kts 20°
2026-05-08 17:39 32.41249 72.08463 35226 ft 449 kts 20°
2026-05-08 17:39 32.44015 72.10104 35017 ft 445 kts 21°
2026-05-08 17:39 32.46738 72.11853 34616 ft 443 kts 25°
2026-05-08 17:40 32.49245 72.13825 34247 ft 437 kts 31°
2026-05-08 17:40 32.51688 72.15973 33797 ft 428 kts 31°
2026-05-08 17:40 32.54024 72.18040 33323 ft 419 kts 32°
2026-05-08 17:40 32.56337 72.20083 32831 ft 411 kts 32°
2026-05-08 17:41 32.58649 72.22116 32309 ft 404 kts 32°
2026-05-08 17:41 32.60889 72.24080 31821 ft 398 kts 32°
2026-05-08 17:41 32.63105 72.26020 31322 ft 392 kts 32°
2026-05-08 17:41 32.65286 72.27928 30849 ft 387 kts 32°
2026-05-08 17:42 32.67436 72.29809 30383 ft 381 kts 32°
2026-05-08 17:42 32.69552 72.31662 29904 ft 376 kts 32°
2026-05-08 17:42 32.71632 72.33484 29353 ft 371 kts 32°
2026-05-08 17:42 32.73698 72.35295 28812 ft 368 kts 32°
2026-05-08 17:43 32.75787 72.37127 28278 ft 364 kts 32°
2026-05-08 17:43 32.77817 72.38908 27760 ft 362 kts 32°
2026-05-08 17:43 32.79840 72.40685 27259 ft 360 kts 33°
2026-05-08 17:43 32.81847 72.42448 26764 ft 359 kts 33°
2026-05-08 17:44 32.83841 72.44202 26271 ft 358 kts 33°
2026-05-08 17:44 32.85842 72.45962 25794 ft 357 kts 33°
2026-05-08 17:44 32.87841 72.47721 25312 ft 357 kts 33°
2026-05-08 17:44 32.89846 72.49488 24868 ft 357 kts 33°
2026-05-08 17:45 32.91844 72.51249 24394 ft 357 kts 34°
2026-05-08 17:45 32.93837 72.53007 23947 ft 356 kts 34°
2026-05-08 17:45 32.95828 72.54765 23475 ft 356 kts 34°
2026-05-08 17:45 32.97818 72.56523 22910 ft 356 kts 34°
2026-05-08 17:46 32.99807 72.58264 22324 ft 352 kts 31°
2026-05-08 17:46 33.02007 72.59502 21673 ft 351 kts 14°
2026-05-08 17:46 33.04404 72.60036 21050 ft 351 kts
2026-05-08 17:46 33.06850 72.60076 20419 ft 350 kts 358°
2026-05-08 17:47 33.09239 72.59940 19751 ft 338 kts 356°
2026-05-08 17:47 33.11554 72.59774 19085 ft 328 kts 356°
2026-05-08 17:47 33.13800 72.59611 18448 ft 319 kts 356°
2026-05-08 17:47 33.15254 72.59510 17996 ft 314 kts 357°
2026-05-08 17:48 33.18134 72.59318 17039 ft 305 kts 357°
2026-05-08 17:48 33.20223 72.59186 16347 ft 298 kts 357°
2026-05-08 17:48 33.22282 72.59059 15669 ft 293 kts 357°
2026-05-08 17:48 33.24299 72.58937 15004 ft 288 kts 358°
2026-05-08 17:49 33.26260 72.58819 14351 ft 282 kts 358°
2026-05-08 17:49 33.28189 72.58703 13706 ft 273 kts 358°
2026-05-08 17:49 33.30087 72.58590 12996 ft 266 kts 358°
2026-05-08 17:49 33.31887 72.58483 12315 ft 261 kts 358°
2026-05-08 17:50 33.33683 72.58376 11634 ft 256 kts 358°
2026-05-08 17:50 33.35452 72.58271 10977 ft 252 kts 358°
2026-05-08 17:50 33.37193 72.58168 10331 ft 249 kts 357°
2026-05-08 17:50 33.38912 72.58066 9683 ft 247 kts 357°
2026-05-08 17:51 33.40622 72.57965 8983 ft 245 kts 357°
2026-05-08 17:51 33.42320 72.57864 8302 ft 244 kts 356°
2026-05-08 17:51 33.44010 72.57764 7632 ft 243 kts 356°
2026-05-08 17:51 33.45697 72.57664 6981 ft 243 kts 355°
2026-05-08 17:52 33.47384 72.57563 6337 ft 243 kts 355°
2026-05-08 17:52 33.49077 72.57463 5724 ft 246 kts 356°
2026-05-08 17:52 33.52046 72.59174 5130 ft 247 kts 56°
2026-05-08 17:53 33.52622 72.61076 5066 ft 243 kts 85°
2026-05-08 17:53 33.52396 72.63050 5034 ft 246 kts 113°
2026-05-08 17:53 33.51409 72.64689 4996 ft 244 kts 143°
2026-05-08 17:53 33.49905 72.65598 4999 ft 244 kts 169°
2026-05-08 17:54 33.48199 72.65763 5007 ft 243 kts 179°
2026-05-08 17:54 33.46498 72.65851 5004 ft 245 kts 178°
2026-05-08 17:54 33.44822 72.65949 5001 ft 244 kts 179°
2026-05-08 17:54 33.43199 72.65663 4992 ft 235 kts 209°
2026-05-08 17:55 33.42059 72.64370 4992 ft 223 kts 241°
2026-05-08 17:55 33.41572 72.62645 4995 ft 219 kts 263°
2026-05-08 17:55 33.41645 72.60836 4989 ft 218 kts 285°
2026-05-08 17:55 33.42346 72.59255 4988 ft 217 kts 311°
2026-05-08 17:56 33.43527 72.58143 5001 ft 218 kts 330°
2026-05-08 17:56 33.44988 72.57654 4991 ft 221 kts 355°
2026-05-08 17:56 33.46536 72.57590 4909 ft 226 kts 356°
2026-05-08 17:56 33.48122 72.57498 4696 ft 229 kts 355°
2026-05-08 17:57 33.49698 72.57496 4451 ft 225 kts 11°
2026-05-08 17:57 33.51172 72.58100 4145 ft 225 kts 20°
2026-05-08 17:57 33.52667 72.58708 3882 ft 226 kts 18°
2026-05-08 17:57 33.54129 72.59261 3844 ft 214 kts 17°
2026-05-08 17:58 33.55511 72.59772 3854 ft 208 kts 18°
2026-05-08 17:58 33.56806 72.60474 3748 ft 201 kts 43°
2026-05-08 17:58 33.57447 72.61825 3717 ft 179 kts 83°
2026-05-08 17:58 33.57488 72.63276 3717 ft 172 kts 94°
2026-05-08 17:59 33.57422 72.64706 3691 ft 170 kts 96°
2026-05-08 17:59 33.57327 72.66130 3715 ft 173 kts 99°
2026-05-08 17:59 33.57147 72.67565 3707 ft 175 kts 102°
2026-05-08 17:59 33.56928 72.69008 3583 ft 178 kts 103°
2026-05-08 18:00 33.56708 72.70428 3365 ft 167 kts 103°
2026-05-08 18:00 33.56311 72.72975 2961 ft 139 kts 104°
2026-05-08 18:00 33.56139 72.74067 2813 ft 128 kts 103°
2026-05-08 18:01 33.55976 72.75117 2647 ft 130 kts 103°
2026-05-08 18:01 33.55807 72.76183 2495 ft 130 kts 104°
2026-05-08 18:01 33.55635 72.77262 2311 ft 132 kts 102°
2026-05-08 18:01 33.55497 72.78330 2153 ft 128 kts 102°
2026-05-08 18:02 33.55331 72.79385 2025 ft 130 kts 103°
2026-05-08 18:02 33.55201 72.80086 1892 ft 130 kts 104°
2026-05-08 18:02 33.54980 72.81443 1767 ft 110 kts 101°
2026-05-08 18:02 33.54867 72.82174 1767 ft 66 kts 101°
2026-05-08 18:03 33.54814 72.82522 1764 ft 36 kts 101°
2026-05-08 18:03 33.54769 72.82809 1767 ft 32 kts 95°
2026-05-08 18:03 33.54787 72.83058 1768 ft 30 kts 77°
2026-05-08 18:03 33.54822 72.83175 1771 ft 9 kts 69°
2026-05-08 18:04 33.54832 72.83205 1772 ft 0 kts 69°
2026-05-08 18:05 33.54842 72.83238 1770 ft 12 kts 71°
2026-05-08 18:05 33.54869 72.83378 1753 ft 19 kts 89°
2026-05-08 18:06 33.54915 72.83464 1773 ft 11 kts 16°
2026-05-08 18:06 33.54978 72.83476 1774 ft 7 kts
2026-05-08 18:06 33.55026 72.83485 1774 ft 7 kts
2026-05-08 18:06 33.55117 72.83506 1775 ft 23 kts 11°
2026-05-08 18:07 33.55246 72.83536 1776 ft 14 kts 11°
2026-05-08 18:07 33.55318 72.83539 1779 ft 7 kts 330°
2026-05-08 18:07 33.55349 72.83507 1777 ft 5 kts 344°
2026-05-08 18:07 33.55389 72.83513 1777 ft 6 kts 13°
2026-05-08 18:08 33.55412 72.83518 1776 ft 2 kts 11°
2026-05-08 18:08 33.55413 72.83518 1776 ft 0 kts 11°